Regional Weather Roundup
Issued by NWS

Home | Current Version | Previous Version | Text Only | Print | Product List | Glossary Off
Versions: 1 2 3 4 5 6 7 8 9 10 11 12 13 14 15 16 17 18 19 20 21 22 23 24 25 26 27 28 29 30 31 32 33 34 35 36 37 38 39 40 41 42 43 44 45 46 47 48 49 50

000
ASUS43 KIND 211509
RWRIN

WEATHER ROUNDUP FOR INDIANA
NATIONAL WEATHER SERVICE INDIANAPOLIS IN
1100 AM EDT SUN SEP 21 2014

NOTE: "FAIR" INDICATES FEW OR NO CLOUDS BELOW 12,000 FEET WITH NO
SIGNIFICANT WEATHER AND/OR OBSTRUCTIONS TO VISIBILITY.

* - STATION DOES NOT REPORT WEATHER SUCH AS PRECIPITATION OR FOG.

+ - STATION NOT QUALITY CONTROLLED BY THE NATIONAL WEATHER SERVICE.
    USE DATA WITH CAUTION...ESPECIALLY DEWPOINT AND RELATIVE
    HUMIDITY OBSERVATIONS.

INZ001>003-010>013-019-020-211600-
NORTHWEST INDIANA

CITY           SKY/WX    TMP DP  RH WIND       PRES   REMARKS
GARY /AIRPORT/ PTSUNNY   64  50  59 W17G29    29.84R
KNOX *+        PTSUNNY   62  51  67 W15G22    29.82S
LA PORTE +     PTSUNNY   60  51  72 W14G21    29.82S
MICHIGAN CITY+ CLOUDY    61  48  63 W16G29    29.83R
MONTICELLO +   SUNNY     64  53  66 W13G21    29.85S
RENSSELAER +   MOSUNNY   63  54  72 W15G24    29.86S
VALPARAISO     PTSUNNY   62  50  64 W16G30    29.84R

$$

LMZ046-743>745-211600-
SOUTHERN LAKE MICHIGAN

STATION/POSITION TIME  TEMP WIND        PRES
                       AIR  DIR/SP/G
                 (UTC) (F)  (DEG/KT/KT) (MB)
MICHIGAN CITY    1500   60  270/ 27/ 31   N/A

$$

INZ004-005-014>016-021>024-211600-
NORTH CENTRAL INDIANA

CITY           SKY/WX    TMP DP  RH WIND       PRES   REMARKS
GOSHEN         CLOUDY   N/A N/A N/A W15G23    29.79R
LOGANSPORT +   SUNNY     63  52  67 W15G23    29.85F
PERU/GRISSOM   SUNNY     65  57  76 W18       29.84S
ROCHESTER +    MOSUNNY   66  52  59 W17G25    29.83R
SOUTH BEND     PTSUNNY   62  51  67 W22G33    29.80R
WARSAW +       PTSUNNY   61  52  72 W21G28    29.80S

$$

INZ006>009-017-018-025>027-211600-
NORTHEAST INDIANA

CITY           SKY/WX    TMP DP  RH WIND       PRES   REMARKS
ANGOLA *+      PTSUNNY   63  54  72 W16       29.76S
AUBURN +       MOSUNNY   64  52  63 W14G22    29.79S
FORT WAYNE     MOSUNNY   64  53  67 W20G28    29.80F
HUNTINGTON +   MOSUNNY   64  54  71 W12G29    29.81S

$$

INZ028-029-035-036-043>045-051>053-211600-
WEST CENTRAL INDIANA

CITY           SKY/WX    TMP DP  RH WIND       PRES   REMARKS
GREENCASTLE +  SUNNY     64  52  63 W10       29.93R
LAFAYETTE      SUNNY     65  54  67 W16G22    29.87F
TERRE HAUTE    SUNNY     69  52  54 NW8       29.94R

$$

INZ030>032-037>040-046>048-054>057-064-065-211600-
CENTRAL INDIANA

CITY           SKY/WX    TMP DP  RH WIND       PRES   REMARKS
CP ATTERBURY + SUNNY     70  52  52 NW18      29.91R
FRANKFORT +    SUNNY     65  54  67 W16       29.89S
GREENWOOD *+   SUNNY     68  54  60 W8G21     29.90
INDIANAPOLIS   SUNNY     68  51  54 W17       29.89S
-EAGLE CREEK   SUNNY     67  50  54 NW16      29.89S
KOKOMO *+      SUNNY     64  52  63 W17G25    29.85S
MARION +       SUNNY     66  51  59 W18G25    29.85S
MT COMFORT *+  SUNNY     68  45  42 W10G21    29.89S
SHELBYVILLE    SUNNY     71  51  49 NW17G24   29.89R
ZIONSVILLE +   SUNNY     67  51  57 W12G20    29.89F

$$

INZ033-034-041-042-049-050-058-059-211600-
EAST CENTRAL INDIANA

CITY           SKY/WX    TMP DP  RH WIND       PRES   REMARKS
MUNCIE         SUNNY     67  50  54 W14G20    29.85S

$$

INZ060-061-067>069-081>083-085>088-211600-
SOUTHWEST INDIANA

CITY           SKY/WX    TMP DP  RH WIND       PRES   REMARKS
EVANSVILLE     MOSUNNY   74  66  76 NW12G18   29.96R
WASHINGTON +   SUNNY     71  52  50 N12G20    29.95R

$$

INZ062-063-066-070>080-084-089>092-211600-
SOUTH CENTRAL AND SOUTHEAST INDIANA

CITY           SKY/WX    TMP DP  RH WIND       PRES   REMARKS
BEDFORD +      MOSUNNY   72  54  53 NW10G17   29.92
BLOOMINGTON    SUNNY     68  51  54 NW10      29.94R

$$




USA.gov is the U.S. government's official web portal to all federal, state and local government web resources and services.